Regional Weather Roundup
Issued by NWS

Home | Current Version | Previous Version | Graphics & Text | Print | Product List | Glossary On
Versions: 1 2 3 4 5 6 7 8 9 10 11 12 13 14 15 16 17 18 19 20 21 22 23 24 25 26 27 28 29 30 31 32 33 34 35 36 37 38 39 40 41 42 43 44 45 46 47 48 49 50
000
ASUS43 KDMX 060707
RWRIA

WEATHER ROUNDUP FOR IOWA
NATIONAL WEATHER SERVICE DES MOINES IA
100 AM CST FRI MAR 06 2015

NOTE: "FAIR" INDICATES FEW OR NO CLOUDS BELOW 12,000 FEET WITH NO
SIGNIFICANT WEATHER AND/OR OBSTRUCTIONS TO VISIBILITY.

* - THESE STATIONS ARE NOT NWS STATIONS...THUS NOT UNDER NWS
QUALITY CONTROL.  THEY ALSO DO NOT REPORT WEATHER SUCH
AS PRECIPITATION OR FOG.

IAZ001>003-012>014-020>022-031>034-043>046-060800-
   NORTHWEST IOWA

CITY           SKY/WX    TMP DP  RH WIND       PRES   REMARKS
CARROLL *      CLOUDY    21   9  58 S17       30.27F WCI   7
CHEROKEE *     PTCLDY    19   9  63 S10       30.21F WCI   8
DENISON *      CLOUDY    23   9  54 S14G22    30.23F WCI  11
LE MARS *      PTCLDY    21   9  58 S13       30.19F WCI   9
ORANGE CITY *  CLEAR     21   9  58 S12       30.17F WCI   9
SHELDON *      CLEAR     18   7  62 S14       30.16F WCI   4
SIOUX CITY     CLOUDY    25  10  53 SE9       30.21F WCI  15
SPENCER        CLEAR     16   5  62 S14       30.20F WCI   2
STORM LAKE *   CLOUDY    18   7  62 S16       30.21F WCI   3
$$

IAZ055>058-069>071-079>083-090>094-060800-
   SOUTHWEST IOWA

CITY           SKY/WX    TMP DP  RH WIND       PRES   REMARKS
ATLANTIC *     CLOUDY    23   7  50 S17       30.29F WCI   9
AUDUBON *      CLOUDY    23   9  54 S14G25    30.28F WCI  11
CLARINDA *     CLOUDY    23   9  54 S8        30.36F WCI  14
COUNCIL BLFS * CLOUDY    23  10  58 SE10      30.26F WCI  12
CRESTON *      CLOUDY    18   7  62 S14       30.33F WCI   4
HARLAN  *      CLOUDY    25  10  54 S17       30.30F WCI  11
LAMONI         CLEAR     18   8  65 S9        30.37F WCI   7
RED OAK *      CLOUDY    25   9  50 S12G18    30.32F WCI  14
SHENANDOAH *   CLOUDY    25  10  54 S14       30.33F WCI  13
$$

IAZ047>049-059>061-072>074-084-060800-
   CENTRAL IOWA

CITY           SKY/WX    TMP DP  RH WIND       PRES   REMARKS
AMES           PTCLDY     9   2  73 SE9       30.35F WCI  -4
ANKENY *       PTCLDY    14   5  67 S10       30.37F WCI   1
CHARITON *     CLEAR     16   5  62 S12       30.38F WCI   3
DES MOINES     PTCLDY    17   4  56 S13       30.36F WCI   4
GRINNELL*      CLEAR     10   3  72 S13       30.38F WCI  -5
KNOXVILLE *    CLEAR     12   3  67 S10       30.37F WCI  -1
MARSHALLTOWN   CLEAR      6  -1  73 SE10      30.36F WCI  -9
PELLA *        CLEAR     12   9  85 S8        30.41F WCI   1
PERRY *          N/A     16   9  73 SE10      30.32F WCI   3
$$

IAZ004>006-015-016-023>025-035-036-060800-
   NORTH CENTRAL IOWA

CITY           SKY/WX    TMP DP  RH WIND       PRES   REMARKS
ALGONA *       CLEAR     12  12 100 S16       30.24F WCI  -4
CLARION *      PTCLDY    12   3  67 S17       30.29F WCI  -5
ESTHERVILLE    CLEAR     12   5  73 S20       30.20F WCI  -6
FORT DODGE *   PTCLDY    16   1  53 S14       30.29F WCI   1
MASON CITY     CLEAR      1  -5  75 S12       30.31F WCI -16
FOREST CITY *  CLEAR      9   0  66 SE12      30.27F WCI  -6
IOWA FALLS *     N/A      3  -2  78 SE10      30.34F WCI -12
$$

IAZ007>011-017>019-026>030-037>042-050>054-066-060800-
   NORTHEAST IOWA

CITY           SKY/WX    TMP DP  RH WIND       PRES   REMARKS
CEDAR RAPIDS   PTCLDY     3  -2  79 S9        30.42F WCI -12
CHARLES CITY * CLEAR      1  -6  71 S12       30.34F WCI -15
CLINTON *      PTCLDY     1  -2  85 SE7       30.50F WCI -11
DECORAH *      CLEAR      1  -6  71 S7        30.34F WCI -11
DUBUQUE        PTCLDY    -6 -11  79 S8        30.42F WCI -21
MONTICELLO *   CLEAR     -8 -13  77 SE5       30.44F WCI -19
OELWEIN *      CLEAR     -2  -9  71 S12       30.38F WCI -20
WATERLOO       PTCLDY     3  -4  72 S8        30.38F WCI -10
$$

IAZ064-065-067-068-078-060800-
   EAST CENTRAL IOWA

CITY           SKY/WX    TMP DP  RH WIND       PRES   REMARKS
DAVENPORT      PTCLDY     2  -4  76 S8        30.48F WCI -12
IOWA CITY      PTCLDY     2  -2  83 SE5       30.48F WCI  -8
MT. PLEASANT * CLEAR      3  -2  78 SE8       30.48F WCI -10
MUSCATINE *    CLEAR      3   0  85 CALM      30.51F
QUAD CITIES    PTCLDY     0  -6  76 CALM      30.50F
$$

IAZ062-063-075>077-085>089-095>099-060800-
   SOUTHEAST IOWA

CITY           SKY/WX    TMP DP  RH WIND       PRES   REMARKS
BURLINGTON     PTCLDY     6   0  76 S5        30.49F WCI  -3
FAIRFIELD *    PTCLDY    10   1  67 S12       30.45F WCI  -4
FORT MADISON * CLEAR      9   1  72 S8        30.50F WCI  -4
KEOKUK *       CLEAR     10   1  67 SE6       30.49F WCI   1
OSKALOOSA *      N/A      9   3  78 S12       30.42F WCI  -6
CENTERVILLE *  CLEAR     14   7  73 SE9       30.42F WCI   2
OTTUMWA        CLEAR     12   3  67 S12       30.42F WCI  -2
WASHINGTON *   CLEAR      9   3  78 S10       30.46F WCI  -6
$$

ABBREVIATIONS USED IN REMARKS
   TC - TEMPERATURES IN CELSIUS
  WCI - WIND CHILL INDEX
   HX - HEAT INDEX
  VSB - VISIBILITY
$$



USA.gov is the U.S. government's official web portal to all federal, state and local government web resources and services.